N3368K CYXJ-KONT

Flight info

Callsign N3368K
Flight time 3h 4m
Altitude 45000
Route 52N120W DCT YDC/N0487F430 DCT YDC J503 SEA/N0482F410 J5 EHF ZIGGY8
Aircraft C700/M-SBDGHM1RWXY/LB2

Departure

Time 2026-04-24 12:42
Airport Fort St John / North Peace Regional Airport (CYXJ)

Arrival

Time 2026-04-24 15:46
Airport Ontario International Airport (KONT)
Time Latitude Longitude Altitude Speed Heading
2026-04-24 12:22 56.24482 -120.73581 2256 ft 0 kts 181°
2026-04-24 12:35 56.24477 -120.73581 2256 ft 3 kts 179°
2026-04-24 12:35 56.24474 -120.73581 2256 ft 0 kts 178°
2026-04-24 12:36 56.24464 -120.73585 2256 ft 5 kts 201°
2026-04-24 12:36 56.24454 -120.73695 2256 ft 15 kts 292°
2026-04-24 12:36 56.24508 -120.73913 2256 ft 23 kts 287°
2026-04-24 12:36 56.24516 -120.74214 2256 ft 26 kts 270°
2026-04-24 12:37 56.24517 -120.74550 2256 ft 27 kts 270°
2026-04-24 12:37 56.24517 -120.74892 2256 ft 28 kts 270°
2026-04-24 12:37 56.24516 -120.75232 2256 ft 25 kts 267°
2026-04-24 12:37 56.24412 -120.75425 2256 ft 24 kts 183°
2026-04-24 12:38 56.24240 -120.75434 2255 ft 25 kts 181°
2026-04-24 12:38 56.24061 -120.75437 2255 ft 26 kts 180°
2026-04-24 12:38 56.23877 -120.75435 2256 ft 27 kts 180°
2026-04-24 12:39 56.23341 -120.75222 2256 ft 28 kts 134°
2026-04-24 12:39 56.23265 -120.75081 2255 ft 0 kts 134°
2026-04-24 12:40 56.23240 -120.75034 2254 ft 11 kts 134°
2026-04-24 12:40 56.23240 -120.74948 2255 ft 0 kts 43°
2026-04-24 12:41 56.23251 -120.74930 2255 ft 14 kts 43°
2026-04-24 12:41 56.23508 -120.74469 2253 ft 90 kts 45°
2026-04-24 12:41 56.24115 -120.73386 2258 ft 153 kts 43°
2026-04-24 12:41 56.24978 -120.71930 2516 ft 190 kts 42°
2026-04-24 12:42 56.26022 -120.70167 3358 ft 225 kts 43°
2026-04-24 12:42 56.27220 -120.68169 4453 ft 239 kts 42°
2026-04-24 12:42 56.28260 -120.65823 5820 ft 245 kts 66°
2026-04-24 12:42 56.28428 -120.62755 7362 ft 254 kts 99°
2026-04-24 12:43 56.27622 -120.59890 8863 ft 266 kts 130°
2026-04-24 12:43 56.26041 -120.58039 10284 ft 281 kts 160°
2026-04-24 12:43 56.24079 -120.57343 11406 ft 294 kts 171°
2026-04-24 12:43 56.22000 -120.56985 12547 ft 307 kts 174°
2026-04-24 12:44 56.20567 -120.56820 13321 ft 314 kts 175°
2026-04-24 12:44 56.18353 -120.56547 14504 ft 324 kts 173°
2026-04-24 12:44 56.16076 -120.56193 15598 ft 332 kts 173°
2026-04-24 12:44 56.13746 -120.55819 16702 ft 340 kts 173°
2026-04-24 12:45 56.11351 -120.55465 17788 ft 349 kts 174°
2026-04-24 12:45 56.08902 -120.55116 18856 ft 358 kts 174°
2026-04-24 12:45 56.06394 -120.54742 19823 ft 364 kts 173°
2026-04-24 12:45 56.03847 -120.54356 20807 ft 370 kts 173°
2026-04-24 12:46 56.01262 -120.53971 21747 ft 376 kts 174°
2026-04-24 12:46 55.98636 -120.53586 22685 ft 382 kts 174°
2026-04-24 12:46 55.95961 -120.53190 23587 ft 388 kts 174°
2026-04-24 12:46 55.93249 -120.52788 24397 ft 394 kts 174°
2026-04-24 12:47 55.89595 -120.52249 25376 ft 400 kts 174°
2026-04-24 12:47 55.87710 -120.51972 25867 ft 404 kts 174°
2026-04-24 12:47 55.84897 -120.51558 26589 ft 409 kts 174°
2026-04-24 12:47 55.82083 -120.51144 27292 ft 413 kts 174°
2026-04-24 12:48 55.79205 -120.50723 27997 ft 418 kts 175°
2026-04-24 12:48 55.76289 -120.50295 28684 ft 422 kts 175°
2026-04-24 12:48 55.73334 -120.49863 29387 ft 427 kts 174°
2026-04-24 12:48 55.70356 -120.49427 30043 ft 432 kts 174°
2026-04-24 12:49 55.67344 -120.48987 30654 ft 437 kts 174°
2026-04-24 12:49 55.64312 -120.48545 31203 ft 440 kts 174°
2026-04-24 12:49 55.61243 -120.48097 31754 ft 443 kts 175°
2026-04-24 12:49 55.58158 -120.47654 32374 ft 445 kts 174°
2026-04-24 12:50 55.55061 -120.47208 32946 ft 448 kts 174°
2026-04-24 12:50 55.51946 -120.46752 33563 ft 450 kts 174°
2026-04-24 12:50 55.48819 -120.46298 34122 ft 452 kts 174°
2026-04-24 12:50 55.45677 -120.45849 34652 ft 455 kts 174°
2026-04-24 12:51 55.42510 -120.45398 35182 ft 455 kts 174°
2026-04-24 12:51 55.39388 -120.44945 35649 ft 457 kts 174°
2026-04-24 12:51 55.36180 -120.44480 36151 ft 458 kts 174°
2026-04-24 12:51 55.32998 -120.44025 36629 ft 459 kts 174°
2026-04-24 12:52 55.29845 -120.43577 37111 ft 461 kts 175°
2026-04-24 12:52 55.26639 -120.43118 37576 ft 463 kts 175°
2026-04-24 12:52 55.23419 -120.42657 38041 ft 465 kts 175°
2026-04-24 12:52 55.20192 -120.42198 38500 ft 467 kts 175°
2026-04-24 12:53 55.16944 -120.41737 38971 ft 469 kts 175°
2026-04-24 12:53 55.13690 -120.41275 39299 ft 472 kts 175°
2026-04-24 12:53 55.10397 -120.40808 39617 ft 475 kts 175°
2026-04-24 12:53 55.07098 -120.40341 39922 ft 477 kts 175°
2026-04-24 12:54 55.03778 -120.39872 40248 ft 479 kts 175°
2026-04-24 12:54 55.00446 -120.39403 40552 ft 482 kts 175°
2026-04-24 12:54 54.97089 -120.38930 40853 ft 484 kts 175°
2026-04-24 12:54 54.93711 -120.38455 41148 ft 487 kts 175°
2026-04-24 12:55 54.90326 -120.37980 41444 ft 489 kts 175°
2026-04-24 12:55 54.86919 -120.37503 41738 ft 492 kts 175°
2026-04-24 12:55 54.83502 -120.37026 42030 ft 494 kts 175°
2026-04-24 12:55 54.80066 -120.36546 42321 ft 497 kts 175°
2026-04-24 12:56 54.76609 -120.36064 42594 ft 499 kts 175°
2026-04-24 12:56 54.73141 -120.35582 42861 ft 502 kts 175°
2026-04-24 12:56 54.69665 -120.35099 43143 ft 504 kts 175°
2026-04-24 12:56 54.66142 -120.34611 43413 ft 506 kts 175°
2026-04-24 12:57 54.62622 -120.34123 43674 ft 509 kts 175°
2026-04-24 12:57 54.59923 -120.33750 43889 ft 511 kts 175°
2026-04-24 12:57 54.56907 -120.33334 44138 ft 512 kts 175°
2026-04-24 12:57 54.53333 -120.32843 44301 ft 508 kts 175°
2026-04-24 12:58 54.49854 -120.32364 44253 ft 498 kts 175°
2026-04-24 12:58 54.42989 -120.31422 44240 ft 492 kts 175°
2026-04-24 12:59 54.36185 -120.30493 44249 ft 487 kts 175°
2026-04-24 12:59 54.29468 -120.29577 44259 ft 482 kts 175°
2026-04-24 13:00 54.22800 -120.28672 44233 ft 478 kts 175°
2026-04-24 13:00 54.16240 -120.27783 44242 ft 474 kts 175°
2026-04-24 13:01 54.09697 -120.26900 44237 ft 470 kts 175°
2026-04-24 13:01 54.03204 -120.26027 44251 ft 466 kts 175°
2026-04-24 13:02 53.96763 -120.25163 44246 ft 463 kts 175°
2026-04-24 13:02 53.90356 -120.24309 44238 ft 460 kts 175°
2026-04-24 13:03 53.83996 -120.23457 44233 ft 457 kts 175°
2026-04-24 13:03 53.77674 -120.22620 44240 ft 455 kts 175°
2026-04-24 13:04 53.71380 -120.21785 44244 ft 452 kts 175°
2026-04-24 13:04 53.65163 -120.20964 44243 ft 450 kts 175°
2026-04-24 13:05 53.58942 -120.20145 44255 ft 448 kts 175°
2026-04-24 13:05 53.52739 -120.19330 44259 ft 446 kts 175°
2026-04-24 13:06 53.46568 -120.18522 44265 ft 443 kts 175°
2026-04-24 13:06 53.40428 -120.17721 44273 ft 441 kts 175°
2026-04-24 13:07 53.34312 -120.16924 44248 ft 439 kts 175°
2026-04-24 13:07 53.28280 -120.16142 44243 ft 437 kts 175°
2026-04-24 13:08 53.22188 -120.15353 44258 ft 443 kts 175°
2026-04-24 13:08 53.15962 -120.14549 44298 ft 453 kts 175°
2026-04-24 13:09 53.06372 -120.13315 44347 ft 467 kts 175°
2026-04-24 13:09 52.99820 -120.12477 44379 ft 476 kts 175°
2026-04-24 13:10 52.93152 -120.11626 44394 ft 485 kts 175°
2026-04-24 13:10 52.86377 -120.10764 44416 ft 493 kts 175°
2026-04-24 13:11 52.82999 -120.10333 44598 ft 492 kts 175°
2026-04-24 13:11 52.79598 -120.09901 44929 ft 489 kts 175°
2026-04-24 13:11 52.76203 -120.09474 45106 ft 489 kts 175°
2026-04-24 13:11 52.72814 -120.09046 45263 ft 488 kts 175°
2026-04-24 13:12 52.69426 -120.08617 45388 ft 489 kts 175°
2026-04-24 13:12 52.66029 -120.08188 45384 ft 492 kts 176°
2026-04-24 13:12 52.59198 -120.07331 45383 ft 490 kts 176°
2026-04-24 13:13 52.52413 -120.06479 45370 ft 486 kts 176°
2026-04-24 13:13 52.45686 -120.05640 45360 ft 486 kts 176°
2026-04-24 13:14 52.38921 -120.04796 45371 ft 488 kts 176°
2026-04-24 13:14 52.32100 -120.03951 45370 ft 495 kts 176°
2026-04-24 13:15 52.25198 -120.03097 45373 ft 498 kts 175°
2026-04-24 13:15 52.18308 -120.02244 45363 ft 495 kts 175°
2026-04-24 13:16 52.11464 -120.01404 45358 ft 491 kts 175°
2026-04-24 13:16 52.04708 -120.00573 45353 ft 491 kts 175°
2026-04-24 13:17 51.97853 -120.00294 45364 ft 494 kts 186°
2026-04-24 13:17 51.90979 -120.01377 45366 ft 497 kts 185°
2026-04-24 13:18 51.84106 -120.02379 45359 ft 495 kts 186°
2026-04-24 13:18 51.77211 -120.03430 45356 ft 500 kts 186°
2026-04-24 13:19 51.70251 -120.04457 45357 ft 503 kts 186°
2026-04-24 13:19 51.63294 -120.05499 45355 ft 500 kts 186°
2026-04-24 13:20 51.56376 -120.06522 45349 ft 498 kts 185°
2026-04-24 13:20 51.49492 -120.07542 45341 ft 496 kts 185°
2026-04-24 13:21 51.42658 -120.08549 45341 ft 496 kts 185°
2026-04-24 13:21 51.35766 -120.09563 45340 ft 498 kts 185°
2026-04-24 13:22 51.28848 -120.10576 45336 ft 499 kts 185°
2026-04-24 13:22 51.21945 -120.11585 45340 ft 495 kts 185°
2026-04-24 13:23 51.15111 -120.12580 45331 ft 491 kts 185°
2026-04-24 13:23 51.08292 -120.13571 45341 ft 494 kts 185°
2026-04-24 13:24 51.01409 -120.14568 45344 ft 498 kts 185°
2026-04-24 13:24 50.94497 -120.15563 45326 ft 499 kts 186°
2026-04-24 13:25 50.87642 -120.16555 45319 ft 497 kts 185°
2026-04-24 13:25 50.80759 -120.17539 45311 ft 496 kts 185°
2026-04-24 13:26 50.73890 -120.18524 45311 ft 496 kts 185°
2026-04-24 13:26 50.67025 -120.19502 45315 ft 495 kts 185°
2026-04-24 13:27 50.60172 -120.20479 45321 ft 494 kts 185°
2026-04-24 13:27 50.53332 -120.21448 45322 ft 493 kts 185°
2026-04-24 13:28 50.46505 -120.22415 45318 ft 492 kts 185°
2026-04-24 13:28 50.39710 -120.23372 45315 ft 489 kts 185°
2026-04-24 13:29 50.32935 -120.24326 45312 ft 487 kts 185°
2026-04-24 13:29 50.26162 -120.25275 45304 ft 489 kts 185°
2026-04-24 13:30 50.19361 -120.26226 45309 ft 492 kts 185°
2026-04-24 13:30 50.12570 -120.27173 45307 ft 493 kts 185°
2026-04-24 13:31 50.06851 -120.27968 45304 ft 492 kts 185°
2026-04-24 13:31 49.98940 -120.29065 45301 ft 490 kts 185°
2026-04-24 13:32 49.93256 -120.29852 45295 ft 490 kts 185°
2026-04-24 13:32 49.86503 -120.30782 45294 ft 489 kts 185°
2026-04-24 13:33 49.79735 -120.31714 45283 ft 488 kts 185°
2026-04-24 13:33 49.72978 -120.32639 45279 ft 486 kts 185°
2026-04-24 13:34 49.66247 -120.33562 45271 ft 486 kts 185°
2026-04-24 13:34 49.59502 -120.34480 45273 ft 486 kts 185°
2026-04-24 13:35 49.52761 -120.35398 45271 ft 486 kts 185°
2026-04-24 13:35 49.46016 -120.36311 45269 ft 486 kts 185°
2026-04-24 13:36 49.39353 -120.37889 45254 ft 485 kts 198°
2026-04-24 13:36 49.33311 -120.42358 45280 ft 483 kts 215°
2026-04-24 13:37 49.27739 -120.48116 45274 ft 484 kts 215°
2026-04-24 13:37 49.22140 -120.53848 45278 ft 485 kts 215°
2026-04-24 13:38 49.16566 -120.59562 45281 ft 485 kts 215°
2026-04-24 13:38 49.10943 -120.65296 45268 ft 488 kts 215°
2026-04-24 13:39 49.05289 -120.71059 45273 ft 490 kts 215°
2026-04-24 13:39 48.99730 -120.77069 45276 ft 488 kts 215°
2026-04-24 13:40 48.94100 -120.82776 45274 ft 483 kts 215°
2026-04-24 13:40 48.88523 -120.88497 45266 ft 486 kts 215°
2026-04-24 13:41 48.82865 -120.94212 45271 ft 491 kts 215°
2026-04-24 13:41 48.77157 -121.00013 45271 ft 494 kts 215°
2026-04-24 13:42 48.71450 -121.05765 45261 ft 490 kts 215°
2026-04-24 13:42 48.65787 -121.11478 45259 ft 491 kts 215°
2026-04-24 13:43 48.60074 -121.17213 45266 ft 495 kts 215°
2026-04-24 13:43 48.54350 -121.22949 45261 ft 493 kts 215°
2026-04-24 13:44 48.48648 -121.28645 45257 ft 490 kts 214°
2026-04-24 13:44 48.42973 -121.34301 45245 ft 488 kts 214°
2026-04-24 13:45 48.37325 -121.39915 45254 ft 491 kts 214°
2026-04-24 13:45 48.31597 -121.45589 45260 ft 494 kts 214°
2026-04-24 13:46 48.25860 -121.51259 45257 ft 491 kts 214°
2026-04-24 13:46 48.20184 -121.56855 45242 ft 487 kts 214°
2026-04-24 13:47 48.14500 -121.62442 45243 ft 490 kts 214°
2026-04-24 13:47 48.08762 -121.68067 45252 ft 494 kts 214°
2026-04-24 13:48 48.03027 -121.73673 45242 ft 491 kts 214°
2026-04-24 13:48 47.97316 -121.79242 45226 ft 488 kts 214°
2026-04-24 13:49 47.91652 -121.84750 45231 ft 484 kts 214°
2026-04-24 13:49 47.86017 -121.90216 45221 ft 484 kts 214°
2026-04-24 13:50 47.80383 -121.95667 45230 ft 488 kts 214°
2026-04-24 13:50 47.74655 -122.01191 45223 ft 492 kts 214°
2026-04-24 13:51 47.68916 -122.06715 45236 ft 491 kts 214°
2026-04-24 13:51 47.63205 -122.12193 45229 ft 487 kts 214°
2026-04-24 13:52 47.57533 -122.17625 45213 ft 486 kts 214°
2026-04-24 13:52 47.51847 -122.23050 45227 ft 487 kts 214°
2026-04-24 13:53 47.45649 -122.27172 45241 ft 493 kts 196°
2026-04-24 13:53 47.38829 -122.28288 45241 ft 497 kts 178°
2026-04-24 13:54 47.32025 -122.26379 45238 ft 498 kts 165°
2026-04-24 13:54 47.25364 -122.23726 45219 ft 493 kts 165°
2026-04-24 13:55 47.18765 -122.21114 45207 ft 491 kts 165°
2026-04-24 13:55 47.12177 -122.18515 45214 ft 496 kts 165°
2026-04-24 13:56 47.05483 -122.15877 45225 ft 498 kts 165°
2026-04-24 13:56 46.98820 -122.13259 45222 ft 494 kts 165°
2026-04-24 13:57 46.92210 -122.10669 45214 ft 490 kts 165°
2026-04-24 13:57 46.85596 -122.08085 45221 ft 494 kts 165°
2026-04-24 13:58 46.78942 -122.05489 45221 ft 495 kts 165°
2026-04-24 13:58 46.72284 -122.02899 45227 ft 495 kts 165°
2026-04-24 13:59 46.65622 -122.00316 45217 ft 494 kts 166°
2026-04-24 13:59 46.58973 -121.97744 45214 ft 494 kts 166°
2026-04-24 14:00 46.52329 -121.95180 45219 ft 495 kts 166°
2026-04-24 14:00 46.45663 -121.92615 45224 ft 496 kts 166°
2026-04-24 14:01 46.38980 -121.90049 45230 ft 497 kts 166°
2026-04-24 14:01 46.32288 -121.87487 45225 ft 498 kts 166°
2026-04-24 14:02 46.25621 -121.84940 45226 ft 498 kts 166°
2026-04-24 14:02 46.18936 -121.82393 45223 ft 496 kts 166°
2026-04-24 14:03 46.12262 -121.79857 45200 ft 496 kts 166°
2026-04-24 14:03 46.05593 -121.77329 45204 ft 496 kts 166°
2026-04-24 14:04 45.98933 -121.74810 45201 ft 495 kts 166°
2026-04-24 14:04 45.92269 -121.72297 45200 ft 494 kts 166°
2026-04-24 14:05 45.85626 -121.69797 45189 ft 493 kts 166°
2026-04-24 14:05 45.78989 -121.67306 45184 ft 494 kts 166°
2026-04-24 14:06 45.72314 -121.64807 45186 ft 497 kts 166°
2026-04-24 14:06 45.65596 -121.62298 45190 ft 499 kts 166°
2026-04-24 14:07 45.58887 -121.59798 45193 ft 497 kts 166°
2026-04-24 14:07 45.52214 -121.57319 45180 ft 494 kts 166°
2026-04-24 14:08 45.45569 -121.54855 45176 ft 494 kts 166°
2026-04-24 14:08 45.38891 -121.52385 45173 ft 497 kts 166°
2026-04-24 14:09 45.32185 -121.49912 45166 ft 499 kts 166°
2026-04-24 14:09 45.25454 -121.47434 45161 ft 500 kts 166°
2026-04-24 14:10 45.18729 -121.44966 45161 ft 497 kts 167°
2026-04-24 14:10 45.12115 -121.42543 45156 ft 493 kts 167°
2026-04-24 14:11 45.05478 -121.40118 45133 ft 493 kts 166°
2026-04-24 14:12 44.95443 -121.36466 45163 ft 499 kts 167°
2026-04-24 14:12 44.88719 -121.34020 45158 ft 498 kts 167°
2026-04-24 14:13 44.82042 -121.31603 45144 ft 494 kts 167°
2026-04-24 14:13 44.75386 -121.29196 45138 ft 494 kts 167°
2026-04-24 14:14 44.68705 -121.26789 45141 ft 497 kts 167°
2026-04-24 14:14 44.58609 -121.23158 45138 ft 498 kts 167°
2026-04-24 14:15 44.51926 -121.20763 45133 ft 494 kts 167°
2026-04-24 14:15 44.45325 -121.18403 45128 ft 493 kts 167°
2026-04-24 14:16 44.38698 -121.16039 45126 ft 496 kts 167°
2026-04-24 14:17 44.28628 -121.12458 45152 ft 499 kts 167°
2026-04-24 14:17 44.18581 -121.08896 45146 ft 494 kts 167°
2026-04-24 14:18 44.13049 -121.06941 45132 ft 492 kts 167°
2026-04-24 14:18 44.06418 -121.04602 45129 ft 493 kts 167°
2026-04-24 14:19 43.99751 -121.02256 45133 ft 495 kts 168°
2026-04-24 14:19 43.93171 -120.99947 45139 ft 497 kts 168°
2026-04-24 14:20 43.86478 -120.97601 45135 ft 494 kts 168°
2026-04-24 14:20 43.79841 -120.95282 45127 ft 491 kts 168°
2026-04-24 14:21 43.73223 -120.92976 45128 ft 490 kts 168°
2026-04-24 14:21 43.66591 -120.90669 45130 ft 493 kts 168°
2026-04-24 14:22 43.59925 -120.88355 45135 ft 495 kts 168°
2026-04-24 14:23 43.49946 -120.84901 45134 ft 491 kts 168°
2026-04-24 14:23 43.43336 -120.82620 45127 ft 488 kts 168°
2026-04-24 14:24 43.36762 -120.80357 45132 ft 487 kts 169°
2026-04-24 14:24 43.30157 -120.78089 45144 ft 490 kts 168°
2026-04-24 14:25 43.23515 -120.75812 45145 ft 493 kts 169°
2026-04-24 14:25 43.16859 -120.73534 45148 ft 492 kts 169°
2026-04-24 14:26 43.10271 -120.71287 45140 ft 489 kts 169°
2026-04-24 14:26 43.03679 -120.69041 45134 ft 487 kts 169°
2026-04-24 14:27 42.97077 -120.66801 45136 ft 490 kts 169°
2026-04-24 14:27 42.90433 -120.64547 45141 ft 494 kts 169°
2026-04-24 14:28 42.83770 -120.62293 45129 ft 492 kts 169°
2026-04-24 14:28 42.77139 -120.60056 45125 ft 490 kts 169°
2026-04-24 14:29 42.70536 -120.57832 45114 ft 487 kts 169°
2026-04-24 14:29 42.63938 -120.55617 45114 ft 491 kts 169°
2026-04-24 14:30 42.58407 -120.53761 45116 ft 494 kts 169°
2026-04-24 14:30 42.50601 -120.51149 45110 ft 492 kts 169°
2026-04-24 14:31 42.43964 -120.49128 45093 ft 486 kts 170°
2026-04-24 14:31 42.37362 -120.47116 45093 ft 488 kts 170°
2026-04-24 14:32 42.30741 -120.45151 45087 ft 491 kts 170°
2026-04-24 14:32 42.24058 -120.43142 45078 ft 491 kts 170°
2026-04-24 14:33 42.17397 -120.41161 45060 ft 489 kts 171°
2026-04-24 14:33 42.10773 -120.39187 45058 ft 487 kts 171°
2026-04-24 14:34 42.04175 -120.37229 45054 ft 484 kts 171°
2026-04-24 14:34 41.97588 -120.35277 45054 ft 485 kts 171°
2026-04-24 14:35 41.90975 -120.33322 45050 ft 488 kts 171°
2026-04-24 14:35 41.84333 -120.31361 45045 ft 489 kts 171°
2026-04-24 14:36 41.77755 -120.29423 45031 ft 487 kts 171°
2026-04-24 14:36 41.71152 -120.27484 45024 ft 484 kts 171°
2026-04-24 14:37 41.64580 -120.25557 45019 ft 483 kts 171°
2026-04-24 14:37 41.57995 -120.23630 45005 ft 485 kts 171°
2026-04-24 14:38 41.51389 -120.21701 45002 ft 487 kts 171°
2026-04-24 14:38 41.44796 -120.19780 45011 ft 487 kts 171°
2026-04-24 14:39 41.38188 -120.17858 45004 ft 485 kts 171°
2026-04-24 14:39 41.31595 -120.15945 44992 ft 484 kts 171°
2026-04-24 14:40 41.25020 -120.14040 44980 ft 482 kts 171°
2026-04-24 14:40 41.18471 -120.12148 44977 ft 480 kts 171°
2026-04-24 14:41 41.11937 -120.10264 44974 ft 481 kts 171°
2026-04-24 14:41 41.05415 -120.08384 44970 ft 483 kts 172°
2026-04-24 14:42 40.98829 -120.06492 44978 ft 486 kts 172°
2026-04-24 14:42 40.92222 -120.04594 44979 ft 485 kts 172°
2026-04-24 14:43 40.85649 -120.02713 44973 ft 482 kts 172°
2026-04-24 14:43 40.79117 -120.00847 44964 ft 478 kts 172°
2026-04-24 14:44 40.72620 -119.99000 44972 ft 479 kts 172°
2026-04-24 14:44 40.66091 -119.97143 44974 ft 482 kts 172°
2026-04-24 14:45 40.59511 -119.95276 44984 ft 484 kts 172°
2026-04-24 14:45 40.52947 -119.93417 44973 ft 481 kts 172°
2026-04-24 14:46 40.46421 -119.91574 44978 ft 477 kts 172°
2026-04-24 14:46 40.39947 -119.89749 44983 ft 477 kts 172°
2026-04-24 14:47 40.33462 -119.87925 44992 ft 481 kts 172°
2026-04-24 14:47 40.26896 -119.86080 44993 ft 482 kts 172°
2026-04-24 14:48 40.20355 -119.84245 44989 ft 479 kts 172°
2026-04-24 14:48 40.13859 -119.82429 44991 ft 476 kts 173°
2026-04-24 14:49 40.07362 -119.80616 44988 ft 478 kts 172°
2026-04-24 14:49 40.00833 -119.78796 44994 ft 480 kts 172°
2026-04-24 14:50 39.94335 -119.76989 44991 ft 482 kts 173°
2026-04-24 14:50 39.87795 -119.75172 44999 ft 479 kts 173°
2026-04-24 14:51 39.81305 -119.73375 45006 ft 476 kts 173°
2026-04-24 14:51 39.74838 -119.71587 45032 ft 476 kts 173°
2026-04-24 14:52 39.68331 -119.69790 45039 ft 479 kts 173°
2026-04-24 14:52 39.61786 -119.67987 45025 ft 481 kts 173°
2026-04-24 14:53 39.55256 -119.66190 45037 ft 478 kts 173°
2026-04-24 14:53 39.48750 -119.64980 45045 ft 470 kts 179°
2026-04-24 14:54 39.42240 -119.64014 45035 ft 471 kts 179°
2026-04-24 14:54 39.35686 -119.63071 45034 ft 475 kts 179°
2026-04-24 14:55 39.30218 -119.62275 45056 ft 477 kts 179°
2026-04-24 14:55 39.22538 -119.61159 45057 ft 472 kts 179°
2026-04-24 14:56 39.16028 -119.60220 45051 ft 470 kts 179°
2026-04-24 14:56 39.09510 -119.59281 45038 ft 473 kts 179°
2026-04-24 14:57 39.02984 -119.58340 45039 ft 475 kts 179°
2026-04-24 14:57 38.96406 -119.57394 45035 ft 474 kts 179°
2026-04-24 14:58 38.89862 -119.56455 45020 ft 472 kts 179°
2026-04-24 14:58 38.83348 -119.55522 45000 ft 470 kts 179°
2026-04-24 14:59 38.76852 -119.54594 44984 ft 469 kts 179°
2026-04-24 14:59 38.70332 -119.53664 44975 ft 473 kts 179°
2026-04-24 15:00 38.63768 -119.52728 44966 ft 475 kts 179°
2026-04-24 15:00 38.57257 -119.51803 44969 ft 473 kts 179°
2026-04-24 15:01 38.50778 -119.50884 44972 ft 471 kts 179°
2026-04-24 15:01 38.44284 -119.49965 44972 ft 469 kts 180°
2026-04-24 15:02 38.37792 -119.49047 44977 ft 470 kts 180°
2026-04-24 15:02 38.31266 -119.48127 44987 ft 473 kts 180°
2026-04-24 15:03 38.25811 -119.47357 44974 ft 474 kts 180°
2026-04-24 15:03 38.18194 -119.46285 44980 ft 469 kts 180°
2026-04-24 15:04 38.11725 -119.45379 44978 ft 467 kts 180°
2026-04-24 15:04 38.06343 -119.44626 44989 ft 469 kts 180°
2026-04-24 15:05 37.99835 -119.43715 44990 ft 471 kts 180°
2026-04-24 15:05 37.93322 -119.42805 44992 ft 471 kts 180°
2026-04-24 15:06 37.86803 -119.41896 44988 ft 470 kts 180°
2026-04-24 15:06 37.80306 -119.40992 44991 ft 470 kts 180°
2026-04-24 15:07 37.73803 -119.40089 44992 ft 470 kts 180°
2026-04-24 15:07 37.67305 -119.39188 44978 ft 470 kts 180°
2026-04-24 15:08 37.60811 -119.38291 44989 ft 470 kts 180°
2026-04-24 15:08 37.54348 -119.37394 44984 ft 470 kts 180°
2026-04-24 15:09 37.47831 -119.36498 44964 ft 472 kts 180°
2026-04-24 15:09 37.41314 -119.35597 44983 ft 469 kts 180°
2026-04-24 15:10 37.34830 -119.34708 44980 ft 467 kts 180°
2026-04-24 15:10 37.28388 -119.33821 44984 ft 465 kts 180°
2026-04-24 15:11 37.21941 -119.32942 44991 ft 466 kts 180°
2026-04-24 15:11 37.15469 -119.32056 44990 ft 471 kts 180°
2026-04-24 15:12 37.08949 -119.31163 44988 ft 469 kts 180°
2026-04-24 15:12 36.99265 -119.29845 44973 ft 464 kts 180°
2026-04-24 15:13 36.92833 -119.28973 44977 ft 467 kts 180°
2026-04-24 15:13 36.86343 -119.28091 44981 ft 470 kts 180°
2026-04-24 15:14 36.79830 -119.27208 44986 ft 471 kts 180°
2026-04-24 15:14 36.73337 -119.26328 44985 ft 468 kts 180°
2026-04-24 15:15 36.66922 -119.25464 44981 ft 465 kts 180°
2026-04-24 15:15 36.60490 -119.24598 44990 ft 466 kts 180°
2026-04-24 15:16 36.54013 -119.23728 45013 ft 470 kts 180°
2026-04-24 15:16 36.47494 -119.22849 45019 ft 470 kts 180°
2026-04-24 15:17 36.41023 -119.21982 45010 ft 466 kts 180°
2026-04-24 15:17 36.34597 -119.21123 45011 ft 464 kts 180°
2026-04-24 15:18 36.28143 -119.20262 45016 ft 468 kts 180°
2026-04-24 15:18 36.21664 -119.19396 45018 ft 469 kts 181°
2026-04-24 15:19 36.15178 -119.18532 45031 ft 468 kts 181°
2026-04-24 15:19 36.08712 -119.17672 45034 ft 466 kts 181°
2026-04-24 15:20 36.02274 -119.16818 45035 ft 464 kts 181°
2026-04-24 15:20 35.95860 -119.15968 45028 ft 462 kts 181°
2026-04-24 15:21 35.89457 -119.15122 45018 ft 464 kts 181°
2026-04-24 15:21 35.83045 -119.14275 45020 ft 468 kts 181°
2026-04-24 15:22 35.76562 -119.13420 45025 ft 470 kts 181°
2026-04-24 15:23 35.66850 -119.12140 45019 ft 465 kts 181°
2026-04-24 15:23 35.57237 -119.10879 45008 ft 464 kts 181°
2026-04-24 15:24 35.47658 -119.07981 44831 ft 492 kts 162°
2026-04-24 15:25 35.42718 -119.04277 43714 ft 506 kts 148°
2026-04-24 15:25 35.36298 -118.98126 42171 ft 494 kts 149°
2026-04-24 15:26 35.28234 -118.90480 40234 ft 487 kts 149°
2026-04-24 15:27 35.20154 -118.82833 38229 ft 496 kts 150°
2026-04-24 15:27 35.11971 -118.75092 36290 ft 494 kts 150°
2026-04-24 15:28 35.02225 -118.63058 33634 ft 507 kts 137°
2026-04-24 15:29 34.97661 -118.56419 32294 ft 515 kts 137°
2026-04-24 15:30 34.90741 -118.46311 30228 ft 519 kts 137°
2026-04-24 15:31 34.81441 -118.32810 27423 ft 521 kts 136°
2026-04-24 15:32 34.72438 -118.19772 24760 ft 477 kts 136°
2026-04-24 15:33 34.63999 -118.07587 22167 ft 463 kts 134°
2026-04-24 15:33 34.59140 -117.97592 20354 ft 452 kts 123°
2026-04-24 15:34 34.56132 -117.91022 19164 ft 439 kts 122°
2026-04-24 15:35 34.51768 -117.81493 17379 ft 430 kts 122°
2026-04-24 15:35 34.48887 -117.75205 16233 ft 423 kts 122°
2026-04-24 15:35 34.47464 -117.72110 15689 ft 419 kts 122°
2026-04-24 15:36 34.46049 -117.69037 15142 ft 415 kts 122°
2026-04-24 15:36 34.43259 -117.62978 14042 ft 408 kts 122°
2026-04-24 15:36 34.41879 -117.59984 13485 ft 404 kts 122°
2026-04-24 15:37 34.40518 -117.57036 12965 ft 399 kts 122°
2026-04-24 15:37 34.39173 -117.54124 12449 ft 395 kts 122°
2026-04-24 15:37 34.38284 -117.52202 12107 ft 393 kts 121°
2026-04-24 15:37 34.36527 -117.48401 11430 ft 375 kts 121°
2026-04-24 15:38 34.35290 -117.45726 10961 ft 355 kts 121°
2026-04-24 15:38 34.34114 -117.43189 10521 ft 339 kts 121°
2026-04-24 15:38 34.32979 -117.40745 10098 ft 326 kts 121°
2026-04-24 15:38 34.31899 -117.38418 9959 ft 305 kts 121°
2026-04-24 15:39 34.30741 -117.36375 9952 ft 285 kts 133°
2026-04-24 15:39 34.29290 -117.34790 9964 ft 283 kts 147°
2026-04-24 15:39 34.27562 -117.33632 9968 ft 286 kts 160°
2026-04-24 15:39 34.25659 -117.32951 9968 ft 285 kts 170°
2026-04-24 15:40 34.23730 -117.32379 9856 ft 289 kts 169°
2026-04-24 15:40 34.21790 -117.31786 9196 ft 283 kts 168°
2026-04-24 15:40 34.19906 -117.31212 8567 ft 272 kts 168°
2026-04-24 15:40 34.18092 -117.30667 7941 ft 267 kts 168°
2026-04-24 15:41 34.16279 -117.30331 7321 ft 262 kts 182°
2026-04-24 15:41 34.14532 -117.30660 6722 ft 256 kts 200°
2026-04-24 15:41 34.12973 -117.31637 6108 ft 252 kts 218°
2026-04-24 15:41 34.11721 -117.33095 5483 ft 249 kts 229°
2026-04-24 15:42 34.10597 -117.34684 4879 ft 248 kts 231°
2026-04-24 15:42 34.09524 -117.36252 4245 ft 247 kts 231°
2026-04-24 15:42 34.08416 -117.37892 3599 ft 247 kts 231°
2026-04-24 15:42 34.07338 -117.39502 3023 ft 245 kts 231°
2026-04-24 15:43 34.06323 -117.41031 2991 ft 222 kts 231°
2026-04-24 15:43 34.05455 -117.42457 2974 ft 203 kts 241°
2026-04-24 15:43 34.05062 -117.44084 2991 ft 206 kts 265°
2026-04-24 15:43 34.05232 -117.45723 2974 ft 195 kts 285°
2026-04-24 15:44 34.05485 -117.47358 2754 ft 199 kts 272°
2026-04-24 15:44 34.05500 -117.48995 2490 ft 194 kts 270°
2026-04-24 15:44 34.05501 -117.50633 2230 ft 195 kts 270°
2026-04-24 15:44 34.05501 -117.52267 1973 ft 195 kts 270°
2026-04-24 15:45 34.05497 -117.53863 1705 ft 182 kts 270°
2026-04-24 15:45 34.05495 -117.55233 1476 ft 157 kts 269°
2026-04-24 15:45 34.05494 -117.56544 1267 ft 155 kts 270°
2026-04-24 15:45 34.05493 -117.57831 1061 ft 149 kts 269°
2026-04-24 15:46 34.05491 -117.58958 927 ft 117 kts 269°
2026-04-24 15:46 34.05492 -117.59600 928 ft 47 kts 270°
2026-04-24 15:46 34.05473 -117.59827 928 ft 15 kts 224°
2026-04-24 15:46 34.05439 -117.59836 928 ft 0 kts 169°
2026-04-24 15:47 34.05396 -117.59848 928 ft 13 kts 229°
2026-04-24 15:47 34.05386 -117.60002 928 ft 23 kts 270°
2026-04-24 15:47 34.05387 -117.60222 928 ft 28 kts 270°
2026-04-24 15:47 34.05387 -117.60472 927 ft 31 kts 270°
2026-04-24 15:48 34.05386 -117.60734 930 ft 32 kts 270°
2026-04-24 15:48 34.05386 -117.61009 933 ft 30 kts 270°
2026-04-24 15:48 34.05343 -117.61162 936 ft 16 kts 187°
2026-04-24 15:48 34.05272 -117.61178 932 ft 15 kts 214°
2026-04-24 15:49 34.05264 -117.61185 932 ft 0 kts 219°